MUOS-2

Last updated on Mon Sep 21 2026 00:02:59 GMT+0000 (Coordinated Universal Time)

1 39206U 13036A 26263.44504215 -.00000014 00000+0 00000+0 0 9991 2 39206 5.1840 45.5471 0057380 178.0319 107.9618 1.00272966 48140
UTC large
Height (km)
Speed (km/s)
/
Latitude / Longitude
Inclination (degrees)
Orbital Period (minutes)
Azimuth
Elevation
Range (km)
Doppler Factor

Next 0 passes for location: London (51.5072 / 0.1276)

No passes found over London.
MUOS-2